MDT,Max TemperatureF,Mean TemperatureF,Min TemperatureF,Max Dew PointF,MeanDew PointF,Min DewpointF,Max Humidity, Mean Humidity, Min Humidity, Max Sea Level PressureIn, Mean Sea Level PressureIn, Min Sea Level PressureIn, Max VisibilityMiles, Mean VisibilityMiles, Min VisibilityMiles, Max Wind SpeedMPH, Mean Wind SpeedMPH, Max Gust SpeedMPH,PrecipitationIn, CloudCover, Events, WindDirDegrees
2013-4-1,51,35,19,30,23,18,100,62,30,30.08,30.04,29.97,10,10,10,15,4,21,0.00,3,,276
2013-4-2,55,39,23,28,17,5,100,49,13,30.13,30.06,30.03,10,10,10,18,5,23,0.00,2,,12
2013-4-3,55,37,19,28,20,12,93,55,18,30.21,30.16,30.13,10,10,10,22,6,29,0.00,1,,304
2013-4-4,59,41,23,30,25,21,100,61,25,30.22,30.14,30.03,10,10,10,17,5,29,0.00,5,,281
2013-4-5,46,36,24,37,30,23,100,75,40,30.05,29.97,29.92,10,10,5,25,6,34,0.00,6,Rain,302
2013-4-6,42,30,19,34,28,19,100,87,57,30.05,30.00,29.95,10,10,2,14,3,20,0.00,5,Rain,303
2013-4-7,42,32,23,36,30,23,100,91,53,29.95,29.82,29.72,10,8,0,21,5,25,0.00,6,Fog-Rain-Snow,2
2013-4-8,42,32,21,32,24,12,100,80,47,29.72,29.59,29.48,10,8,0,31,7,38,0.00,8,Fog-Snow,29
2013-4-9,35,28,21,23,11,3,93,52,34,30.08,29.90,29.68,10,10,10,22,11,29,0.00,7,,58
2013-4-10,42,30,17,27,19,14,93,70,41,30.09,30.00,29.88,10,9,2,29,7,37,0.00,5,Snow,240
2013-4-11,46,38,30,32,25,18,100,66,34,29.92,29.88,29.84,10,10,2,24,8,33,0.00,4,Snow,293
2013-4-12,46,34,23,27,16,1,100,55,17,29.98,29.92,29.87,10,10,10,24,9,33,0.00,2,,291
2013-4-13,42,33,24,32,23,10,87,68,38,29.87,29.64,29.50,10,10,3,28,7,40,0.00,5,Rain-Snow,272
2013-4-14,33,22,12,16,7,0,86,50,23,29.75,29.71,29.62,10,10,10,23,12,31,0.00,5,,292
2013-4-15,33,24,15,23,14,7,86,63,38,29.79,29.70,29.63,10,9,2,21,6,26,0.00,7,Snow,156
2013-4-16,32,26,19,18,8,1,80,51,27,29.97,29.80,29.71,10,10,7,16,9,22,0.00,6,,27
2013-4-17,32,22,12,19,12,5,100,67,32,30.11,29.98,29.93,10,8,2,20,8,31,0.00,6,Snow,275
2013-4-18,37,19,1,14,10,0,100,62,30,30.19,30.14,30.11,10,9,3,26,8,36,0.00,2,Snow,299
2013-4-19,41,28,15,32,19,12,100,65,42,30.19,30.07,29.96,10,10,10,18,6,24,0.00,6,,295
2013-4-20,46,38,30,34,28,18,100,75,32,30.09,29.99,29.94,10,9,0,26,7,41,0.00,6,Fog-Rain-Snow,295
2013-4-21,50,36,21,30,23,12,100,65,24,30.11,30.05,29.97,10,10,10,24,7,31,0.00,3,,275
2013-4-22,35,27,19,28,23,19,100,85,52,30.17,30.02,29.93,10,6,0,21,5,25,0.00,7,Snow,27
2013-4-23,33,16,-2,19,13,-4,100,72,38,30.20,30.15,30.08,10,8,1,15,6,21,0.00,3,Snow,292
2013-4-24,44,30,15,21,14,9,79,53,25,30.23,30.17,30.13,10,10,10,17,9,23,0.00,0,,295
2013-4-25,51,34,17,19,14,9,93,52,18,30.16,30.08,30.00,10,10,10,21,6,28,0.00,1,,298
2013-4-26,59,40,21,23,17,12,93,48,16,30.32,30.25,30.15,10,10,10,18,6,36,0.00,1,,297
2013-4-27,62,42,23,27,22,14,93,48,16,30.33,30.26,30.17,10,10,10,25,8,33,0.00,0,,297
2013-4-28,59,42,26,28,25,18,100,56,20,30.17,30.09,30.03,10,10,10,25,6,31,0.00,2,,293
2013-4-29,55,39,23,32,25,18,93,57,30,30.03,29.89,29.77,10,10,10,26,8,38,0.00,2,,276
2013-4-30,44,32,21,27,12,-4,80,42,13,30.01,29.84,29.77,10,10,10,22,9,40,0.00,1,,292